PACCTY Weather Reports


Display with metric or nautical units.
time (UTC)temp
F
wind
direction
speed
MPH
gust
MPH
rain 1hr
in
rain 24hr
in
rain mn
in
humidity
%
barometer
mb
20260509184033 66 228 1.0 7.0 0.00 0.00 0.00 76
20260509184025 66 228 1.0 7.0 0.00 0.00 0.00 70 1017.6
20260509183025 65 243 0.0 6.0 0.00 0.00 0.00 73 1017.5
20260509182025 65 205 1.0 3.0 0.00 0.00 0.00 74 1017.6
20260509181525 65 288 0.0 1.0 0.00 0.00 0.00 73 1017.6
20260509181025 64 0 0.0 0.0 0.00 0.00 0.00 75 1017.7
20260509180617 64 0 0.0 0.0 0.00 0.00 0.00 77 1017.6
20260509180525 64 0 0.0 0.0 0.00 0.00 0.00 77 1017.6
20260509175025 63 0 0.0 0.0 0.00 0.00 0.00 76 1017.7
20260509174525 63 0 0.0 0.0 0.00 0.00 0.00 76 1017.7
20260509172525 60 0 0.0 0.0 0.00 0.00 0.00 84 1017.9
20260509171525 59 0 0.0 0.0 0.00 0.00 0.00 86 1017.9
20260509171025 59 0 0.0 0.0 0.00 0.00 0.00 87 1017.8
20260509170525 58 0 0.0 0.0 0.00 0.00 0.00 87 1017.9
20260509170025 58 0 0.0 0.0 0.00 0.00 0.00 88 1017.9
20260509164025 56 0 0.0 0.0 0.00 0.00 0.00 92 1018.1
20260509163525 55 0 0.0 0.0 0.00 0.00 0.00 92 1018.1
20260509163025 55 0 0.0 0.0 0.00 0.00 0.00 93 1018.0
20260509162528 54 0 0.0 0.0 0.00 0.00 0.00 93 1018.1
20260509162027 54 0 0.0 0.0 0.00 0.00 0.00 94 1018.1
20260509161525 54 0 0.0 0.0 0.00 0.00 0.00 95 1018.1
20260509161025 53 0 0.0 0.0 0.00 0.00 0.00 95 1018.1
20260509160525 53 0 0.0 0.0 0.00 0.00 0.00 96 1018.1
20260509160026 53 0 0.0 0.0 0.00 0.00 0.00 96 1018.1
20260509155024 52 0 0.0 0.0 0.00 0.00 0.00 96 1018.2
20260509154524 52 0 0.0 0.0 0.00 0.00 0.00 96 1018.3
20260509154025 51 0 0.0 0.0 0.00 0.00 0.00 96 1018.3
20260509153524 51 0 0.0 0.0 0.00 0.00 0.00 96 1018.3
20260509153025 50 0 0.0 0.0 0.00 0.00 0.00 96 1018.4
20260509152525 50 0 0.0 0.0 0.00 0.00 0.00 96 1018.4
20260509152024 49 0 0.0 0.0 0.00 0.00 0.00 96 1018.5
20260509151524 49 0 0.0 0.0 0.00 0.00 0.00 96 1018.5
20260509151025 49 0 0.0 0.0 0.00 0.00 0.00 96 1018.5
20260509150524 48 0 0.0 0.0 0.00 0.00 0.00 96 1018.6
20260509150025 48 0 0.0 0.0 0.00 0.00 0.00 96 1018.6
20260509145525 48 0 0.0 0.0 0.00 0.00 0.00 96 1018.6
20260509145024 48 0 0.0 0.0 0.00 0.00 0.00 96 1018.7
20260509144525 48 0 0.0 0.0 0.00 0.00 0.00 96 1018.8
20260509144024 47 0 0.0 0.0 0.00 0.00 0.00 96 1018.9
20260509143025 47 0 0.0 0.0 0.00 0.00 0.00 96 1019.0
20260509142525 47 0 0.0 0.0 0.00 0.00 0.00 96 1018.9
20260509141524 46 0 0.0 0.0 0.00 0.00 0.00 96 1019.1
20260509141024 46 0 0.0 0.0 0.00 0.00 0.00 96 1019.1
20260509140524 46 0 0.0 0.0 0.00 0.00 0.00 96 1019.2
20260509140025 46 0 0.0 0.0 0.00 0.00 0.00 96 1019.2
20260509135024 46 0 0.0 0.0 0.00 0.00 0.00 96 1018.9
20260509134643 46 0 0.0 0.0 0.00 0.00 0.00 96 1018.8
20260509134525 46 0 0.0 0.0 0.00 0.00 0.00 96 1018.8
20260509134024 46 0 0.0 0.0 0.00 0.00 0.00 96 1018.8
20260509133524 46 0 0.0 0.0 0.00 0.00 0.00 96 1018.8
20260509133024 46 0 0.0 0.0 0.00 0.00 0.00 96 1019.0
20260509132525 46 0 0.0 0.0 0.00 0.00 0.00 96 1019.0
20260509131524 46 0 0.0 0.0 0.00 0.00 0.00 96 1018.9
20260509131025 46 0 0.0 0.0 0.00 0.00 0.00 96 1018.9
20260509130524 46 0 0.0 0.0 0.00 0.00 0.00 96 1018.9
20260509130025 46 0 0.0 0.0 0.00 0.00 0.00 96 1019.0
20260509125024 46 0 0.0 0.0 0.00 0.00 0.00 96 1019.1
20260509124525 46 0 0.0 0.0 0.00 0.00 0.00 96 1019.2
20260509124024 46 0 0.0 0.0 0.00 0.00 0.00 96 1019.1
20260509123524 46 0 0.0 0.0 0.00 0.00 0.00 96 1019.1
20260509123024 46 0 0.0 0.0 0.00 0.00 0.00 96 1019.2
20260509122526 46 0 0.0 0.0 0.00 0.00 0.00 96 1019.3
20260509122024 46 0 0.0 0.0 0.00 0.00 0.00 96 1019.3
20260509121524 46 0 0.0 0.0 0.00 0.00 0.00 96 1019.4
20260509121024 46 0 0.0 0.0 0.00 0.00 0.00 96 1019.5
20260509120524 46 0 0.0 0.0 0.00 0.00 0.00 96 1019.5
20260509120024 47 0 0.0 0.0 0.00 0.00 0.00 96 1019.4
20260509115525 47 0 0.0 0.0 0.00 0.00 0.00 96 1019.4
20260509115025 47 0 0.0 0.0 0.00 0.00 0.00 96 1019.6
20260509114025 47 0 0.0 0.0 0.00 0.00 0.00 96 1019.8
20260509113524 47 0 0.0 0.0 0.00 0.00 0.00 96 1019.8
20260509113025 47 0 0.0 0.0 0.00 0.00 0.00 96 1019.7
20260509112525 47 0 0.0 0.0 0.00 0.00 0.00 96 1019.6
20260509112025 47 0 0.0 0.0 0.00 0.00 0.00 96 1019.6
20260509111524 47 0 0.0 0.0 0.00 0.00 0.00 96 1019.6
20260509111025 47 0 0.0 0.0 0.00 0.00 0.00 96 1019.6
20260509110524 47 0 0.0 0.0 0.00 0.00 0.00 96 1019.6
20260509110025 47 0 0.0 0.0 0.00 0.00 0.00 96 1019.6
20260509105525 47 0 0.0 0.0 0.00 0.00 0.00 96 1019.6
20260509105025 47 0 0.0 0.0 0.00 0.00 0.00 96 1019.6
20260509104524 47 0 0.0 0.0 0.00 0.00 0.00 96 1019.6
20260509103524 47 0 0.0 0.0 0.00 0.00 0.00 96 1019.6
20260509103025 47 0 0.0 0.0 0.00 0.00 0.00 96 1019.6
20260509102525 47 0 0.0 0.0 0.00 0.00 0.00 96 1019.8
20260509102024 47 0 0.0 0.0 0.00 0.00 0.00 96 1019.8
20260509101525 47 0 0.0 0.0 0.00 0.00 0.00 96 1019.9
20260509101024 47 0 0.0 0.0 0.00 0.00 0.00 96 1019.9
20260509100524 47 0 0.0 0.0 0.00 0.00 0.00 96 1020.0
20260509100024 47 0 0.0 0.0 0.00 0.00 0.00 96 1020.0
20260509095525 47 0 0.0 0.0 0.00 0.00 0.00 96 1020.1
20260509095024 48 0 0.0 0.0 0.00 0.00 0.00 96 1020.1
20260509094524 48 0 0.0 0.0 0.00 0.00 0.00 96 1020.1
20260509094024 48 0 0.0 0.0 0.00 0.00 0.00 96 1020.1
20260509093024 48 0 0.0 0.0 0.00 0.00 0.00 96 1020.0
20260509092024 48 0 0.0 0.0 0.00 0.00 0.00 95 1020.1
20260509091524 48 0 0.0 0.0 0.00 0.00 0.00 95 1020.1
20260509091024 48 0 0.0 0.0 0.00 0.00 0.00 95 1020.1
20260509090524 48 0 0.0 0.0 0.00 0.00 0.00 95 1020.1
20260509090024 48 0 0.0 0.0 0.00 0.00 0.00 95 1020.1
20260509085525 48 0 0.0 0.0 0.00 0.00 0.00 95 1020.1
20260509085024 48 0 0.0 0.0 0.00 0.00 0.00 95 1020.2
20260509084524 48 0 0.0 0.0 0.00 0.00 0.00 95 1020.2
20260509084024 48 0 0.0 0.0 0.00 0.00 0.00 95 1020.3
20260509083524 48 0 0.0 0.0 0.00 0.00 0.00 95 1020.4
20260509083025 48 0 0.0 0.0 0.00 0.00 0.00 95 1020.4
20260509082525 48 0 0.0 0.0 0.00 0.00 0.00 95 1020.3
20260509082024 48 0 0.0 0.0 0.00 0.00 0.00 95 1020.3
20260509081524 48 0 0.0 0.0 0.00 0.00 0.00 95 1020.4
20260509081029 48 0 0.0 0.0 0.00 0.00 0.00 2
20260509081024 48 0 0.0 0.0 0.00 0.00 0.00 95 1020.3
20260509080524 48 0 0.0 0.0 0.00 0.00 0.00 95 1020.3
20260509080024 48 0 0.0 0.0 0.00 0.00 0.00 95 1020.3
20260509075525 48 0 0.0 0.0 0.00 0.00 0.00 95 1020.2
20260509075024 49 0 0.0 0.0 0.00 0.00 0.00 95 1020.3
20260509074524 48 0 0.0 0.0 0.00 0.00 0.00 95 1020.3
20260509074024 49 0 0.0 0.0 0.00 0.00 0.00 95 1020.3
20260509073524 49 0 0.0 0.0 0.00 0.00 0.00 95 1020.4
20260509073024 49 0 0.0 0.0 0.00 0.00 0.00 94 1020.4
20260509072525 49 0 0.0 0.0 0.00 0.00 0.00 94 1020.4
20260509072024 49 0 0.0 0.0 0.00 0.00 0.00 94 1020.3
20260509071524 49 0 0.0 0.0 0.00 0.00 0.00 94 1020.4
20260509071024 49 0 0.0 0.0 0.00 0.00 0.00 94 1020.4
20260509070524 49 0 0.0 0.0 0.00 0.00 0.00 94 1020.4
20260509070025 49 0 0.0 0.0 0.00 0.00 0.00 93 1020.5
20260509065526 50 0 0.0 0.0 0.00 0.00 0.00 93 1020.5
20260509065024 50 0 0.0 0.0 0.00 0.00 0.00 93 1020.6
20260509064525 50 0 0.0 0.0 0.00 0.00 0.00 93 1020.7
20260509064024 50 0 0.0 0.0 0.00 0.00 0.00 93 1020.7
20260509063524 50 0 0.0 0.0 0.00 0.00 0.00 93 1020.7
20260509063024 50 0 0.0 0.0 0.00 0.00 0.00 93 1020.8
20260509062525 51 0 0.0 0.0 0.00 0.00 0.00 92 1020.8
20260509062024 51 0 0.0 0.0 0.00 0.00 0.00 92 1020.8
20260509061618 51 0 0.0 0.0 0.00 0.00 0.00 92 1020.8
20260509061524 51 0 0.0 0.0 0.00 0.00 0.00 92 1020.8
20260509061024 51 0 0.0 0.0 0.00 0.00 0.00 92 1020.9
20260509060524 51 0 0.0 0.0 0.00 0.00 0.00 91 1020.8
20260509060024 51 0 0.0 0.0 0.00 0.00 0.00 91 1020.8
20260509055525 52 0 0.0 0.0 0.00 0.00 0.00 90 1020.8
20260509055024 52 0 0.0 0.0 0.00 0.00 0.00 90 1020.7
20260509054524 52 0 0.0 0.0 0.00 0.00 0.00 90 1020.7
20260509054024 53 0 0.0 0.0 0.00 0.00 0.00 90 1020.7
20260509053524 53 0 0.0 0.0 0.00 0.00 0.00 90 1020.8
20260509053024 53 0 0.0 0.0 0.00 0.00 0.00 89 1020.7
20260509052525 53 0 0.0 0.0 0.00 0.00 0.00 89 1020.8
20260509052024 53 0 0.0 0.0 0.00 0.00 0.00 88 1020.8
20260509051524 53 0 0.0 0.0 0.00 0.00 0.00 88 1020.8
20260509051024 53 0 0.0 0.0 0.00 0.00 0.00 88 1020.8
20260509050024 54 0 0.0 0.0 0.00 0.00 0.00 88 1020.6
20260509045525 54 0 0.0 0.0 0.00 0.00 0.00 88 1020.6
20260509045024 54 0 0.0 0.0 0.00 0.00 0.00 87 1020.6
20260509044524 54 0 0.0 0.0 0.00 0.00 0.00 87 1020.6
20260509044024 54 0 0.0 0.0 0.00 0.00 0.00 86 1020.4
20260509043024 55 0 0.0 0.0 0.00 0.00 0.00 86 1020.5
20260509042525 55 0 0.0 0.0 0.00 0.00 0.00 85 1020.5
20260509042025 55 0 0.0 0.0 0.00 0.00 0.00 85 1020.5
20260509041524 55 0 0.0 0.0 0.00 0.00 0.00 84 1020.5
20260509041025 55 0 0.0 0.0 0.00 0.00 0.00 84 1020.5
20260509040525 56 0 0.0 0.0 0.00 0.00 0.00 84 1020.4
20260509035025 56 0 0.0 0.0 0.00 0.00 0.00 83 1020.3
20260509034524 56 0 0.0 0.0 0.00 0.00 0.00 83 1020.3
20260509034025 57 0 0.0 0.0 0.00 0.00 0.00 82 1020.2
20260509033025 57 0 0.0 0.0 0.00 0.00 0.00 82 1020.2
20260509032525 57 0 0.0 0.0 0.00 0.00 0.00 82 1020.1
20260509032026 57 0 0.0 0.0 0.00 0.00 0.00 82 1020.2
20260509031525 57 0 0.0 0.0 0.00 0.00 0.00 82 1020.2
20260509031025 57 0 0.0 0.0 0.00 0.00 0.00 81 1020.2
20260509030025 57 0 0.0 0.0 0.00 0.00 0.00 81 1020.2
20260509024525 58 0 0.0 0.0 0.00 0.00 0.00 81 1020.3
20260509023525 58 0 0.0 3.0 0.00 0.00 0.00 80 1020.4
20260509022525 58 235 0.0 3.0 0.00 0.00 0.00 80 1020.4
20260509021525 58 219 0.0 2.0 0.00 0.00 0.00 80 1020.5
20260509020525 58 226 0.0 3.0 0.00 0.00 0.00 80 1020.5
20260509020025 58 0 0.0 3.0 0.00 0.00 0.00 80 1020.5
20260509015524 58 197 0.0 3.0 0.00 0.00 0.00 79 1020.5
20260509014524 59 0 0.0 3.0 0.00 0.00 0.00 78 1020.4
20260509014024 59 231 1.0 3.0 0.00 0.00 0.00 78 1020.4
20260509013524 59 205 0.0 2.0 0.00 0.00 0.00 78 1020.4
20260509013025 59 264 0.0 3.0 0.00 0.00 0.00 77 1020.3
20260509012024 59 232 0.0 3.0 0.00 0.00 0.00 77 1020.4
20260509011525 59 250 0.0 3.0 0.00 0.00 0.00 77 1020.5
20260509010524 59 253 0.0 3.0 0.00 0.00 0.00 77 1020.4
20260509005525 59 170 0.0 3.0 0.00 0.00 0.00 77 1020.5
20260509004524 59 219 1.0 3.0 0.00 0.00 0.00 77 1020.6
20260509004024 59 222 0.0 5.0 0.00 0.00 0.00 77 1020.6
20260509003524 60 266 0.0 5.0 0.00 0.00 0.00 76 1020.7
20260509003024 60 226 0.0 5.0 0.00 0.00 0.00 76 1020.7
20260509002024 60 221 1.0 4.0 0.00 0.00 0.00 76 1020.7
20260509001024 61 228 0.0 4.0 0.00 0.00 0.00 74 1020.8
20260508231525 63 217 2.0 5.0 0.00 0.00 0.00 71 1021.2
20260508231024 63 238 1.0 5.0 0.00 0.00 0.00 71 1021.1
20260508225525 64 263 3.0 6.0 0.00 0.00 0.00 69 1021.1
20260508224024 63 235 3.0 5.0 0.00 0.00 0.00 70 1021.1
20260508222024 63 256 0.0 6.0 0.00 0.00 0.00 69 1021.0
20260508201524 60 219 3.0 8.0 0.00 0.00 0.00 73 1020.6